Home   Weather   Lublin   Past weeks

Flag for Poland Past Weather in Lublin, Poland — Yesterday and Last 2 Weeks

Now
29 °F

Passing clouds.


Feels Like: 24 °F
Forecast: 28 / 33 °F
Wind: 5 mph from West

Location: Lublin Radawiec

Current Time: Dec 3, 2016 at 8:58:35 pm

Latest Report: Dec 3, 2016 at 8:00 pm


Visibility: 12 mi

Pressure: 30.19 "Hg

Humidity: 84%

Dew Point: 25 °F

Location of LublinLocation

Past Weather in Lublin — Graph

°F

Lublin Temperature Yesterday

Maximum temperature yesterday: 37 °F (at 3:00 am)
Minimum temperature yesterday: 28 °F (at 1:00 pm)
Average temperature yesterday: 32 °F

High & Low Weather Summary for the Past Weeks

 TemperatureHumidityPressure
High54 °F (Nov 19, 1:00 pm)100% (Nov 24, 8:00 am)30.41 "Hg (Nov 24, 8:00 am)
Low22 °F (Nov 29, 1:00 am)52% (Nov 30, 11:00 am)29.26 "Hg (Dec 2, 3:00 am)
Average36 °F89%30.07 "Hg
* Reported Nov 18 7:00 pm — Dec 3 7:00 pm, Lublin, Weather by CustomWeather, © 2016

Note: Actual official high and low records may vary slightly from our data, if they occured in-between our weather recording intervals... More about our weather records

Advertising

Lublin Weather History for the Previous 24 Hours

Scroll right to see more
 ConditionsComfort  
Time TempWeatherWind HumidityBarometerVisibility
7:00 pm
Sat, Dec 3
30 °FOvercast.5 mph85%30.19 "Hg10 mi
6:00 pm30 °FPassing clouds.5 mph88%30.19 "Hg11 mi
5:00 pm30 °FSnow flurries. Overcast.5 mph88%30.19 "Hg6 mi
4:00 pm30 °FPassing clouds.5 mph85%30.18 "Hg12 mi
3:00 pm31 °FPassing clouds.6 mph83%30.16 "Hg19 mi
2:00 pm31 °FScattered clouds.6 mph81%30.14 "Hg19 mi
1:00 pm31 °FPassing clouds.8 mph80%30.13 "Hg19 mi
12:00 pm32 °FScattered clouds.8 mph78%30.11 "Hg19 mi
11:00 am31 °FPartly sunny.7 mph80%30.10 "Hg19 mi
10:00 am31 °FPassing clouds.7 mph84%30.08 "Hg25 mi
9:00 am31 °FPartly sunny.8 mph85%30.05 "Hg22 mi
8:00 am31 °FOvercast.8 mph85%30.02 "Hg25 mi
7:00 am31 °FOvercast.8 mph88%29.99 "Hg25 mi
6:00 am32 °FSnow showers. Low clouds.8 mph93%29.96 "Hg2 mi
5:00 am32 °FSnow flurries. Low clouds.7 mph93%29.95 "Hg9 mi
4:00 am33 °FOvercast.8 mph91%29.93 "Hg19 mi
3:00 am33 °FSnow showers. Low clouds.8 mph94%29.92 "Hg2 mi
2:00 am33 °FSnow flurries. Overcast.8 mph92%29.91 "Hg5 mi
1:00 am33 °FSnow flurries. Overcast.7 mph92%29.90 "Hg4 mi
12:00 am33 °FSnow flurries. Overcast.6 mph92%29.90 "Hg12 mi
11:00 pm
Fri, Dec 2
33 °FSnow flurries. Overcast.7 mph91%29.89 "Hg9 mi
10:00 pm33 °FSnow flurries. Overcast.7 mph90%29.88 "Hg22 mi
9:00 pm32 °FOvercast.7 mph88%29.88 "Hg19 mi
8:00 pm32 °FOvercast.7 mph88%29.87 "Hg19 mi
Weather by CustomWeather, © 2016

See weather overviewHow to use our weather pages